Regional Weather Roundup
Issued by NWS

Home | Current Version | Previous Version | Text Only | Print | Product List | Glossary Off
Versions: 1 2 3 4 5 6 7 8 9 10 11 12 13 14 15 16 17 18 19 20 21 22 23 24 25 26 27 28 29 30 31 32 33 34 35 36 37 38 39 40 41 42 43 44 45 46 47 48 49 50

000
ASUS43 KLSX 261210
RWRMO

WEATHER SUMMARY FOR MISSOURI
NATIONAL WEATHER SERVICE SPRINGFIELD MO
700 AM CDT THU MAY 26 2016

NOTE: "FAIR" INDICATES FEW OR NO CLOUDS BELOW 12,000 FEET WITH NO
       SIGNIFICANT WEATHER AND/OR OBSTRUCTIONS TO VISIBILITY.
       CURRENT SKY AND/OR WEATHER CONDITIONS ARE NOT AVAILABLE FOR
       CHILLICOTHE AND FARMINGTON.

MOZ001>031-035>038-043-044-053-054-261300-
...NORTHERN AND WESTERN MISSOURI...

CITY           SKY/WX    TMP DP  RH WIND       PRES   REMARKS
KANSAS CTY INT PTSUNNY   64  62  93 S7        29.89S
6HR MIN TEMP:  63; 6HR MAX TEMP:  76; 6HR PCP:  0.19;

KANSAS C DTWN  CLOUDY    65  62  90 CALM      29.90R
6HR MIN TEMP:  65; 6HR MAX TEMP:  79; 6HR PCP:  0.61;

LEE`S SUMMIT   CLOUDY    64  62  93 S9        29.90R
6HR MIN TEMP:  64; 6HR MAX TEMP:  75; 6HR PCP:  0.28;

ST JOSEPH      CLOUDY    66  61  84 SW6       29.89R THUNDER
6HR MIN TEMP:  63; 6HR MAX TEMP:  70; 6HR PCP: TRACE;

CHILLICOTHE      N/A     68  60  75 CALM      29.87F
6HR MIN TEMP:  68; 6HR MAX TEMP:  76; 6HR PCP:  0.02;

KIRKSVILLE     CLOUDY    69  63  81 N12       29.89F
6HR MIN TEMP:  67; 6HR MAX TEMP:  72; 6HR PCP:  0.02;


$$
MOZ066>068-077>081-088>096-101>105-261300-
...SOUTHWEST MISSOURI...

CITY           SKY/WX    TMP DP  RH WIND       PRES   REMARKS
SPRINGFIELD    CLOUDY    72  69  90 NE6       29.97R
6HR MIN TEMP:  71; 6HR MAX TEMP:  72;

JOPLIN         CLOUDY    74  72  93 S8        29.92R FOG
6HR MIN TEMP:  73; 6HR MAX TEMP:  76;

BRANSON        FOG       68  68 100 CALM      29.98R VSB 1/8

$$
MOZ032>034-039>042-045>050-055>058-069>072-261300-
...CENTRAL MISSOURI...

CITY           SKY/WX    TMP DP  RH WIND       PRES   REMARKS
COLUMBIA       CLOUDY    64  62  93 CALM      29.90F
6HR MIN TEMP:  64; 6HR MAX TEMP:  71; 6HR PCP:  0.13;

JEFFERSON CITY CLOUDY    65  62  90 E6        29.91F
6HR MIN TEMP:  65; 6HR MAX TEMP:  74; 6HR PCP:  0.12;

ROLLA          TSTM      63  62  97 CALM      29.97F FOG
6HR MIN TEMP:  63; 6HR MAX TEMP:  73; 6HR PCP:  0.63;

SEDALIA        TSTM      66  62  87 W7        29.99R FOG
6HR MIN TEMP:  64; 6HR MAX TEMP:  73; 6HR PCP:  0.42;

WHITEMAN AFB   TSTM      63  63 100 S13G21    29.91F
WARRENSBURG    TSTM      63  61  94 SE14      29.90F

$$
MOZ051-052-059>065-261300-
...EAST CENTRAL MISSOURI...

CITY           SKY/WX    TMP DP  RH WIND       PRES   REMARKS
ST LOUIS INTL  CLOUDY    73  66  78 S9        29.93R THUNDER
6HR MIN TEMP:  72; 6HR MAX TEMP:  73;

SPIRIT OF STL  TSTM      69  64  84 NW26G38   29.99R
6HR MIN TEMP:  67; 6HR MAX TEMP:  72; 6HR PCP:  0.04;

ST CHARLES     TSTM      66  64  93 NW20G44   29.96R FOG
6HR MIN TEMP:  68; 6HR MAX TEMP:  71; 6HR PCP:  0.15;


$$
MOZ072>076-082>087-097>100-106>115-261300-
...SOUTH CENTRAL AND SOUTHEAST MISSOURI...

CITY           SKY/WX    TMP DP  RH WIND       PRES   REMARKS
CAPE GIRARDEAU CLOUDY    69  63  81 S5        30.01S
6HR MIN TEMP:  65; 6HR MAX TEMP:  69;

FARMINGTON     CLOUDY    68  67  96 S9        29.99R FOG
6HR MIN TEMP:  66; 6HR MAX TEMP:  68;

POPLAR BLUFF   CLOUDY    68  66  93 SE3       30.00R
6HR MIN TEMP:  65; 6HR MAX TEMP:  68;

WEST PLAINS    CLOUDY    73  70  90 VRB6      30.01R FOG
6HR MIN TEMP:  68; 6HR MAX TEMP:  73;


$$



USA.gov is the U.S. government's official web portal to all federal, state and local government web resources and services.